TimeEST,TemperatureF,Dew PointF,Humidity,Sea Level PressureIn,VisibilityMPH,Wind Direction,Wind SpeedMPH,Gust SpeedMPH,PrecipitationIn,Events,Conditions,WindDirDegrees,DateUTC
12:51 AM,30.2,28.4,93,30.30,4.0,ENE,6.9,-,N/A,,Mostly Cloudy,60,2014-02-12 05:51:00
12:53 AM,30.9,28.9,92,30.32,4.0,ENE,6.9,-,N/A,,Mostly Cloudy,60,2014-02-12 05:53:00
1:53 AM,30.9,28.9,92,30.32,4.0,ENE,6.9,-,N/A,,Mostly Cloudy,60,2014-02-12 06:53:00
2:26 AM,30.2,28.4,93,30.29,4.0,NE,10.4,-,N/A,,Overcast,50,2014-02-12 07:26:00
2:42 AM,30.2,28.4,93,30.31,4.0,NE,8.1,-,N/A,,Overcast,40,2014-02-12 07:42:00
2:53 AM,30.9,28.9,92,30.32,4.0,NE,9.2,-,N/A,,Overcast,50,2014-02-12 07:53:00
3:02 AM,30.2,28.4,93,30.30,4.0,ENE,11.5,-,N/A,,Overcast,60,2014-02-12 08:02:00
3:18 AM,30.2,26.6,86,30.29,5.0,ENE,13.8,-,N/A,,Overcast,60,2014-02-12 08:18:00
3:53 AM,30.0,27.0,88,30.30,5.0,NE,8.1,-,N/A,,Overcast,50,2014-02-12 08:53:00
4:53 AM,30.0,26.1,85,30.29,6.0,NE,15.0,-,N/A,,Overcast,40,2014-02-12 09:53:00
5:53 AM,28.9,23.0,78,30.29,9.0,NE,12.7,-,N/A,,Overcast,40,2014-02-12 10:53:00
6:53 AM,28.0,21.0,75,30.32,10.0,NE,11.5,-,N/A,,Overcast,50,2014-02-12 11:53:00
7:53 AM,27.0,19.9,75,30.33,2.0,NE,11.5,-,0.00,Snow,Light Snow,50,2014-02-12 12:53:00
7:56 AM,26.6,19.4,74,30.31,1.8,NE,10.4,-,0.00,Snow,Light Snow,40,2014-02-12 12:56:00
8:00 AM,26.6,19.4,74,30.31,1.2,NE,10.4,-,0.00,Snow,Light Snow,40,2014-02-12 13:00:00
8:10 AM,26.6,21.2,80,30.31,0.5,ENE,16.1,23.0,0.00,Snow,Snow,60,2014-02-12 13:10:00
8:27 AM,24.8,21.2,86,30.32,0.5,NE,11.5,-,0.02,Fog-Snow,Snow,40,2014-02-12 13:27:00
8:53 AM,25.0,21.9,88,30.35,0.5,NE,11.5,-,0.04,Fog-Snow,Snow,40,2014-02-12 13:53:00
9:53 AM,25.0,21.9,88,30.31,0.5,NE,16.1,-,0.04,Fog-Snow,Snow,40,2014-02-12 14:53:00
10:49 AM,24.8,21.2,86,30.24,1.2,NNE,16.1,26.5,0.03,Snow,Light Snow,30,2014-02-12 15:49:00
10:53 AM,25.0,21.9,88,30.26,1.2,NNE,20.7,31.1,0.03,Snow,Light Snow,30,2014-02-12 15:53:00
11:53 AM,25.0,21.9,88,30.26,0.8,NNE,13.8,-,0.03,Snow,Light Snow,30,2014-02-12 16:53:00
12:53 PM,25.0,21.0,85,30.20,0.8,NE,12.7,24.2,0.06,Snow,Light Snow,40,2014-02-12 17:53:00
12:59 PM,24.8,21.2,86,30.17,0.8,NNE,15.0,21.9,0.00,Snow,Light Snow,30,2014-02-12 17:59:00
1:08 PM,24.8,21.2,86,30.16,1.0,NNE,20.7,31.1,0.01,Snow,Light Snow,30,2014-02-12 18:08:00
1:53 PM,25.0,21.0,85,30.16,0.8,NE,12.7,25.3,0.04,Snow,Light Snow,40,2014-02-12 18:53:00
2:49 PM,24.8,21.2,86,30.07,2.0,NNE,18.4,24.2,0.04,Snow,Light Snow,30,2014-02-12 19:49:00
2:53 PM,25.0,21.0,85,30.09,2.0,NNE,17.3,24.2,0.04,Snow,Light Snow,30,2014-02-12 19:53:00
3:53 PM,25.0,21.0,85,30.04,1.0,NE,21.9,26.5,0.06,Snow,Light Snow,40,2014-02-12 20:53:00
4:53 PM,25.0,21.9,88,29.99,1.0,NNE,17.3,26.5,0.07,Snow,Light Snow,30,2014-02-12 21:53:00
5:53 PM,25.0,21.0,85,29.96,1.0,NNE,19.6,28.8,0.05,Snow,Light Snow,20,2014-02-12 22:53:00
6:53 PM,25.0,21.9,88,29.94,1.0,NE,19.6,26.5,0.03,Snow,Light Snow,40,2014-02-12 23:53:00
7:53 PM,25.0,23.0,92,29.93,1.0,NE,13.8,-,0.06,,Overcast,40,2014-02-13 00:53:00
8:53 PM,25.0,23.0,92,29.90,1.0,NE,13.8,-,0.17,Snow,Light Snow,50,2014-02-13 01:53:00
9:06 PM,24.8,23.0,93,29.88,1.5,NE,12.7,-,0.03,,Overcast,40,2014-02-13 02:06:00
9:30 PM,26.6,24.8,93,29.88,1.2,NNE,12.7,-,0.07,,Overcast,20,2014-02-13 02:30:00
9:40 PM,26.6,24.8,93,29.88,1.5,NNE,10.4,-,0.08,Snow,Light Snow,20,2014-02-13 02:40:00
9:53 PM,26.1,24.1,92,29.90,1.5,NNE,10.4,-,0.08,Snow,Light Snow,20,2014-02-13 02:53:00
10:33 PM,26.6,24.8,93,29.84,2.5,NNE,11.5,-,0.03,Snow,Light Snow,30,2014-02-13 03:33:00
10:41 PM,26.6,24.8,93,29.83,4.0,NNE,12.7,-,0.03,,Overcast,30,2014-02-13 03:41:00
10:53 PM,28.0,25.0,88,29.84,5.0,NNE,13.8,-,0.03,,Overcast,20,2014-02-13 03:53:00
11:45 PM,28.4,26.6,93,29.80,2.5,North,12.7,-,0.00,Snow,Light Snow,10,2014-02-13 04:45:00
11:53 PM,28.9,27.0,92,29.82,2.5,NNE,12.7,-,0.00,Snow,Light Snow,20,2014-02-13 04:53:00